SCP
3 4 5 5 5 5 4 3 2 2 2 3 4 4 3 2 2 2 2 1 1 0 0 0 1 1 1 1 2 2 2 2 2 2 2 2 2 2
3 3 4 4 5 5 4 3 2 2 2 2 3 3 3 2 2 2 1 1 1 0 0 0 0 0 1 1 1 1 1 1 1 1 1 1 1 1
2 2 3 3 4 4 4 3 2 2 2 2 3 3 3 3 2 2 2 1 1 0 0 0 0 0 0 0 0 0 1 1 1 1 1 1 1 1
2 2 2 2 2 2 2 2 2 2 2 2 2 2 3 3 3 3 2 1 1 1 0 0 0 0 0 0 0 0 0 0 0 0 0 1 1 1
2 1 1 2 2 1 1 1 2 2 2 3 3 2 2 3 3 3 2 2 1 1 1 0 0 0 0 0 0 0 0 0 0 0 0 0 0 0
1 1 1 1 1 1 1 1 2 2 2 3 3 2 2 2 3 3 2 2 2 2 1 1 1 1 0 0 0 0 0 0 0 0 0 0 0 0
1 1 1 1 1 1 1 1 1 2 3 3 3 3 2 2 3 3 2 2 2 2 2 2 2 2 1 1 0 0 0 0 0 0 0 0 0 0
2 2 2 1 1 1 1 0 1 1 2 3 3 3 2 2 3 3 3 3 3 3 3 3 3 3 3 2 1 0 0 0 0 0 0 0 0 0
3 3 2 2 1 1 1 1 1 1 1 2 3 3 3 3 4 4 3 3 3 3 3 3 3 3 2 2 1 0 0 0 0 0 0 0 0 0
3 3 3 2 2 1 1 1 1 1 1 1 2 3 3 3 4 4 4 4 3 3 3 2 2 2 2 1 0 0 0 0 0 0 0 0 0 0
2 2 2 2 1 1 1 1 1 1 1 1 1 2 2 3 3 4 4 3 3 3 3 2 2 2 2 1 0 0 0 0 0 0 0 0 0 0
1 1 1 1 1 1 1 1 2 2 2 1 1 2 2 2 2 3 4 3 3 3 3 2 2 2 2 1 1 0 0 0 0 0 0 0 0 0
1 1 1 0 0 0 1 1 1 1 2 2 2 2 2 2 2 3 3 3 3 3 3 2 3 3 2 1 1 0 0 0 0 0 0 0 0 0
0 0 0 0 0 0 0 1 1 1 1 1 1 1 1 1 2 3 4 4 3 3 3 3 3 3 2 1 1 0 0 1 1 1 1 1 1 0
0 0 0 0 0 0 0 0 0 0 0 1 1 1 1 1 2 3 4 5 4 3 3 3 3 3 2 1 1 1 1 1 1 1 1 2 2 1
0 0 0 0 0 0 0 0 0 0 0 1 1 1 1 1 1 2 4 4 5 4 3 2 2 3 2 2 1 1 1 1 1 1 2 2 2 2
0 0 0 0 0 0 0 0 0 0 0 1 1 0 0 1 1 2 3 4 3 3 2 2 2 2 2 2 1 1 1 1 1 1 2 2 2 2
0 0 0 0 0 0 0 0 0 0 0 0 0 0 1 1 1 2 3 3 3 2 1 1 1 2 2 1 1 1 1 1 1 1 2 1 1 1
0 0 0 0 0 0 0 0 0 0 1 1 1 1 1 1 1 2 3 3 3 2 1 1 1 1 1 1 1 1 1 2 2 2 1 1 1 1
0 0 0 1 1 1 1 0 1 1 1 1 1 1 1 1 1 2 2 3 2 2 1 1 1 1 1 1 1 1 1 1 1 1 1 1 1 1
0 0 1 1 2 2 1 1 1 1 1 1 1 1 1 2 2 2 2 2 1 1 1 1 1 1 2 2 1 1 1 1 1 1 1 1 1 1
1 1 2 2 2 1 1 1 1 1 1 1 1 1 2 2 2 2 1 1 0 0 0 1 1 1 2 1 1 1 0 1 1 1 1 1 1 1
1 2 2 2 1 1 1 1 1 1 1 1 1 2 2 2 1 1 1 1 1 1 0 1 1 1 1 1 1 0 0 1 1 1 1 0 0 0
Wind_Speed
6 6 6 4 4 4 4 5 5 5 5 4 4 4 4 4 3 6 6 6 8 9 9 9 10 11 11 10 10 10 10 11 11 11 11 11 12 13
5 5 5 5 4 4 5 5 5 6 5 4 4 4 4 5 5 7 6 6 9 9 9 9 9 10 10 10 10 10 11 11 11 11 12 12 13 12
4 5 5 5 4 4 4 5 5 5 6 5 4 4 4 6 4 6 7 7 6 10 9 9 9 10 10 10 10 11 11 11 11 11 12 12 12 12
5 5 5 4 5 5 5 5 5 5 6 7 5 5 5 6 6 6 6 6 6 8 10 10 10 10 10 11 11 11 11 11 11 12 12 12 12 13
5 5 5 5 5 4 5 5 5 5 6 7 7 4 5 5 5 6 6 5 6 5 8 10 10 9 10 11 11 11 12 12 12 12 12 12 12 12
5 6 6 5 5 5 5 6 6 6 6 6 6 5 4 4 5 5 5 4 4 4 3 4 6 9 9 10 11 11 12 12 11 12 12 12 12 12
5 5 5 4 4 5 5 5 5 5 5 5 5 5 4 3 4 4 4 4 4 4 3 4 4 5 6 9 10 10 10 11 11 11 11 11 12 12
4 4 5 5 5 6 5 6 6 6 6 5 5 5 5 5 4 5 4 4 4 3 4 4 4 4 4 5 6 9 10 9 10 10 10 10 11 11
3 4 4 3 4 5 5 7 7 8 8 7 7 7 6 5 5 6 5 5 5 3 4 5 4 5 4 2 7 8 9 9 9 9 9 10 10 10
3 4 3 3 3 5 5 6 6 6 7 7 7 7 6 5 5 6 6 6 6 5 5 6 5 5 4 3 6 8 8 8 8 8 9 9 9 9
4 3 3 3 2 4 5 6 6 6 6 6 6 5 5 5 5 6 6 6 6 4 4 5 5 4 4 4 4 8 7 7 8 8 8 8 8 9
3 2 1 2 2 3 5 5 6 5 5 5 6 7 7 6 7 7 7 6 6 5 3 4 5 4 4 3 3 4 5 7 8 8 9 9 8 7
3 2 1 1 1 3 4 4 5 6 6 5 5 5 4 4 5 5 5 6 6 5 3 4 4 4 4 4 4 3 3 3 5 6 9 10 9 8
4 3 2 0 2 3 3 4 5 6 4 3 3 4 4 4 3 4 4 5 5 6 5 5 5 4 5 5 4 3 3 3 4 4 4 7 10 10
3 3 3 4 4 4 4 5 5 4 3 3 3 3 3 3 3 2 3 4 6 6 5 6 6 5 5 6 5 4 4 3 4 4 4 4 5 6
3 3 5 7 6 4 3 3 3 2 3 3 3 3 3 3 3 3 3 3 4 4 5 5 6 6 6 6 5 5 4 4 3 3 3 4 4 5
4 3 2 2 2 2 2 2 1 1 2 2 3 3 3 3 3 2 3 3 3 3 3 3 5 5 6 5 5 5 4 4 4 3 4 4 4 4
4 3 2 3 3 3 2 2 1 2 2 3 3 3 3 3 3 2 2 3 3 3 3 3 3 4 4 4 4 5 4 4 3 3 4 4 4 3
3 3 3 3 3 3 2 2 2 2 2 3 3 3 3 3 3 2 2 2 3 3 2 3 3 4 4 4 2 3 4 3 3 3 3 4 4 3
2 3 3 3 3 3 3 3 3 2 2 2 3 3 3 3 3 2 2 2 2 2 2 2 2 3 3 4 3 1 3 4 3 4 3 3 3 1
3 3 3 3 3 3 3 3 3 2 2 2 2 2 2 3 3 3 2 2 3 3 2 2 2 3 3 3 3 2 1 2 2 3 4 3 3 3
3 3 3 3 3 3 3 3 3 2 3 3 2 2 2 3 3 3 3 3 3 3 3 3 2 2 3 3 3 3 2 1 2 2 1 3 4 4
4 4 4 3 3 3 3 3 3 2 2 2 2 2 2 3 3 2 3 3 3 3 3 3 3 3 3 3 2 2 2 2 1 0 0 2 4 3
Wind_Direction
241 235 241 247 246 247 247 248 260 264 257 236 234 234 236 243 217 238 241 210 218 226 227 229 229 225 225 227 226 225 225 222 222 224 226 229 228 227
246 246 247 249 251 251 246 246 251 261 266 259 248 241 241 248 224 243 243 210 218 222 222 223 222 221 221 223 225 226 225 223 223 225 227 228 226 226
242 238 241 249 250 256 252 248 248 250 259 265 259 255 243 252 239 243 235 231 218 209 217 221 222 223 225 226 227 228 228 226 224 226 227 227 226 226
240 238 238 236 236 247 253 254 254 256 256 262 262 256 248 246 245 250 245 235 240 203 209 218 222 223 225 226 227 228 227 226 224 226 228 229 229 228
246 240 239 236 240 248 253 255 256 253 254 257 258 255 252 247 246 247 249 248 250 209 204 213 218 222 227 227 225 224 225 224 223 225 228 231 232 232
249 247 245 241 243 247 249 250 252 256 254 256 258 255 251 244 245 247 245 238 250 248 233 228 215 214 223 224 221 221 221 220 220 222 223 227 231 232
250 250 249 243 255 259 265 264 260 258 259 259 260 260 257 254 254 255 253 251 246 249 245 239 223 222 212 216 215 213 214 217 218 220 224 227 229 230
270 262 250 225 224 228 244 260 262 258 262 265 266 264 262 256 257 257 257 255 254 241 254 256 251 243 234 233 187 190 203 212 218 220 223 227 229 230
275 275 273 254 239 245 233 233 239 245 252 262 268 268 266 262 262 260 261 268 272 263 258 260 254 253 249 217 154 183 200 210 216 219 222 223 225 227
274 273 273 274 267 266 258 253 250 245 244 247 260 267 271 271 259 258 259 254 254 248 236 257 257 256 256 240 171 186 199 209 214 218 218 220 222 225
270 272 273 272 303 274 254 255 254 249 229 234 250 261 275 271 264 256 251 252 253 246 232 250 257 263 261 247 187 180 193 206 211 215 218 219 221 225
265 254 277 302 313 286 262 262 262 262 255 236 232 234 240 234 227 245 256 258 261 258 239 249 254 261 265 255 233 199 198 199 206 214 216 219 217 229
296 289 316 134 273 279 276 279 282 280 267 252 238 237 236 236 231 231 249 261 263 261 250 239 250 250 258 262 262 254 245 230 212 211 208 209 210 224
299 307 333 150 255 262 264 292 292 280 266 258 253 252 250 249 244 239 237 249 261 265 271 260 257 248 249 252 252 247 242 245 245 243 225 192 201 213
302 309 285 255 253 240 233 248 259 263 273 273 273 278 277 273 263 247 237 234 240 244 244 242 247 249 249 251 254 254 258 253 244 244 240 225 220 210
280 257 230 236 241 257 252 228 247 283 290 288 292 290 277 264 252 250 245 239 241 237 222 227 239 243 247 250 252 254 258 258 251 248 244 242 240 235
310 287 291 290 282 272 267 264 256 246 258 279 285 283 277 270 265 262 263 270 264 257 245 224 222 230 247 260 254 255 259 257 253 250 249 249 247 243
289 290 300 303 306 308 302 289 274 269 277 278 281 283 286 287 281 275 266 260 263 262 257 254 238 229 231 231 243 254 256 256 255 247 251 255 255 247
266 295 308 311 308 308 302 289 282 279 277 275 279 282 282 281 278 273 269 269 266 267 270 268 257 256 257 255 235 220 249 257 255 253 251 255 260 259
291 309 311 303 297 297 291 288 289 286 272 272 279 286 289 286 277 274 280 289 287 292 279 267 264 262 268 279 292 268 238 251 247 251 252 250 254 221
306 303 306 310 310 305 301 294 286 283 282 279 277 281 283 284 283 278 266 263 271 274 278 271 269 263 267 261 256 257 241 208 243 260 270 263 257 248
300 301 307 306 302 298 294 290 286 280 276 271 276 273 270 272 271 276 279 266 258 261 272 275 260 249 246 246 258 275 275 227 159 155 280 279 272 268
309 306 301 299 300 298 296 299 301 298 295 292 287 286 290 288 287 285 279 274 271 270 271 275 272 254 253 254 265 280 287 285 276 249 212 156 166 179